Eufaula, AL

10:43 AM CST on February 27, 2017 (GMT -0600)
Weedon

Weather History for KEUF - October, 2012

Change the Weather History Date:

Monday, October 22, 2012

  Actual Average (KLSF) Record (KLSF)
Temperature  
Mean Temperature 64 °F -  
Max Temperature 82 °F 74 °F 84 °F (2000)
Min Temperature 46 °F 48 °F 33 °F (2011)
Degree Days  
Heating Degree Days 1    
Growing Degree Days 14 (Base 50)    
Moisture  
Dew Point 51 °F    
Average Humidity 73    
Maximum Humidity 93    
Minimum Humidity 31    
Precipitation  
Precipitation 0.00 in - - ()
Sea Level Pressure  
Sea Level Pressure 30.14 in    
Wind  
Wind Speed 1 mph (ESE)    
Max Wind Speed 8 mph    
Max Gust Speed -    
Visibility 10 miles    
Events      
Averages and records for this station are not official NWS values.
T = Trace of Precipitation, MM = Missing Value Source: NWS Daily Summary

Daily Weather History Graph

Daily Weather History Graph

Search for Another Location

Airport or City:

Trip Planner

Search our weather history database for the weather conditions in past years. The results will help you decide how hot, cold, wet, or windy it might be!

Date:

Astronomy

Oct. 22, 2012 Rise Set
Actual Time 6:49 AM CDT 5:59 PM CDT
Civil Twilight 6:24 AM CDT 6:24 PM CDT
Nautical Twilight 5:56 AM CDT 6:53 PM CDT
Astronomical Twilight 5:27 AM CDT 7:21 PM CDT
Moon 1:45 PM CDT (10/22) 12:00 AM CDT (10/22)
Length of Visible Light 12h 00m
Length of Day
11h 10m
First Quarter, 56% of the Moon is Illuminated
Oct 22
First Quarter
Oct 29
Full
Nov 6
Last Quarter
Nov 13
New
Nov 20
First Quarter

Hourly Weather History & Observations

Time (CDT) Temp. Dew Point Humidity Pressure Visibility Wind Dir Wind Speed Gust Speed Precip Events Conditions
12:58 AM 50.0 °F 48.0 °F 93% 30.12 in 10.0 mi Calm Calm - N/A   Clear
1:58 AM 48.9 °F 46.9 °F 93% 30.12 in 10.0 mi Calm Calm - N/A   Clear
2:58 AM 48.9 °F 46.9 °F 93% 30.12 in 10.0 mi Calm Calm - N/A   Clear
3:58 AM 46.9 °F 45.0 °F 93% 30.12 in 10.0 mi Calm Calm - N/A   Clear
4:58 AM 48.0 °F 46.0 °F 93% 30.14 in 10.0 mi Calm Calm - N/A   Clear
5:58 AM 46.9 °F 45.0 °F 93% 30.17 in 10.0 mi Calm Calm - N/A   Clear
6:58 AM 46.9 °F 45.0 °F 93% 30.18 in 10.0 mi Calm Calm - N/A   Clear
7:58 AM 54.0 °F 52.0 °F 93% 30.19 in 10.0 mi Calm Calm - N/A   Clear
8:58 AM 62.1 °F 53.1 °F 72% 30.21 in 10.0 mi Calm Calm - N/A   Clear
9:58 AM 68.0 °F 55.9 °F 65% 30.20 in 10.0 mi Calm Calm - N/A   Clear
10:58 AM 75.0 °F 55.0 °F 50% 30.19 in 10.0 mi ESE 5.8 mph - N/A   Clear
11:58 AM 78.1 °F 52.0 °F 40% 30.17 in 10.0 mi ESE 8.1 mph - N/A   Clear
12:58 PM 80.1 °F 50.0 °F 35% 30.14 in 10.0 mi ESE 5.8 mph - N/A   Clear
1:58 PM 81.0 °F 50.0 °F 34% 30.12 in 10.0 mi Variable 4.6 mph - N/A   Clear
2:58 PM 82.0 °F 48.9 °F 31% 30.09 in 10.0 mi Variable 3.5 mph - N/A   Clear
3:58 PM 82.9 °F 48.9 °F 31% 30.09 in 10.0 mi East 5.8 mph - N/A   Clear
4:58 PM 81.0 °F 51.1 °F 35% 30.09 in 10.0 mi Calm Calm - N/A   Clear
5:58 PM 66.9 °F 59.0 °F 76% 30.09 in 10.0 mi Calm Calm - N/A   Clear
6:58 PM 63.0 °F 55.9 °F 78% 30.12 in 10.0 mi Calm Calm - N/A   Clear
7:58 PM 57.9 °F 54.0 °F 87% 30.13 in 10.0 mi Calm Calm - N/A   Clear
8:58 PM 55.9 °F 53.1 °F 90% 30.14 in 10.0 mi Calm Calm - N/A   Clear
9:58 PM 54.0 °F 52.0 °F 93% 30.14 in 10.0 mi Calm Calm - N/A   Clear
10:58 PM 53.1 °F 51.1 °F 93% 30.14 in 10.0 mi Calm Calm - N/A   Clear
11:58 PM 52.0 °F 50.0 °F 93% 30.13 in 10.0 mi Calm Calm - N/A   Clear